SAS73C EKCH-LFPG

Flight info

Callsign SAS73C
Flight time 1h 33m
Altitude 38000
Route NEXEN T503 GIMRU DCT MICOS DCT IDOSA UN857 TOLVU DCT RAPOR DCT VEDUS
Aircraft A20N/M-SDE2E3FGHIRWXY/LB1

Departure

Time 2026-04-21 18:50
Airport Copenhagen Kastrup Airport (EKCH)

Arrival

Time 2026-04-21 20:23
Airport Charles de Gaulle International Airport (LFPG)
Time Latitude Longitude Altitude Speed Heading
2026-04-21 18:31 55.62629 12.64431 27 ft 0 kts 68°
2026-04-21 18:31 55.62630 12.64431 27 ft 0 kts 66°
2026-04-21 18:40 55.62628 12.64422 27 ft 2 kts 66°
2026-04-21 18:40 55.62617 12.64379 27 ft 3 kts 66°
2026-04-21 18:41 55.62609 12.64346 27 ft 3 kts 66°
2026-04-21 18:41 55.62601 12.64313 27 ft 3 kts 67°
2026-04-21 18:41 55.62594 12.64280 27 ft 3 kts 67°
2026-04-21 18:41 55.62585 12.64248 27 ft 3 kts 60°
2026-04-21 18:42 55.62574 12.64220 27 ft 3 kts 39°
2026-04-21 18:42 55.62560 12.64201 27 ft 3 kts 42°
2026-04-21 18:42 55.62548 12.64177 27 ft 3 kts 76°
2026-04-21 18:42 55.62548 12.64145 27 ft 3 kts 115°
2026-04-21 18:43 55.62555 12.64123 27 ft 1 kts 123°
2026-04-21 18:43 55.62564 12.64099 27 ft 3 kts 123°
2026-04-21 18:43 55.62574 12.64070 27 ft 2 kts 123°
2026-04-21 18:43 55.62578 12.64061 27 ft 1 kts 123°
2026-04-21 18:46 55.62577 12.64064 27 ft 2 kts 123°
2026-04-21 18:46 55.62552 12.64129 27 ft 11 kts 123°
2026-04-21 18:46 55.62504 12.64257 27 ft 13 kts 123°
2026-04-21 18:46 55.62451 12.64383 27 ft 13 kts 128°
2026-04-21 18:47 55.62381 12.64443 27 ft 12 kts 194°
2026-04-21 18:47 55.62304 12.64406 27 ft 12 kts 196°
2026-04-21 18:47 55.62221 12.64361 24 ft 13 kts 205°
2026-04-21 18:47 55.62146 12.64299 26 ft 11 kts 206°
2026-04-21 18:48 55.62062 12.64228 27 ft 17 kts 206°
2026-04-21 18:48 55.61951 12.64135 27 ft 18 kts 205°
2026-04-21 18:48 55.61836 12.64071 27 ft 17 kts 178°
2026-04-21 18:48 55.61722 12.64085 28 ft 16 kts 176°
2026-04-21 18:49 55.61627 12.64073 30 ft 12 kts 216°
2026-04-21 18:49 55.61502 12.63879 29 ft 53 kts 221°
2026-04-21 18:49 55.61241 12.63476 30 ft 97 kts 221°
2026-04-21 18:49 55.60290 12.62008 91 ft 166 kts 220°
2026-04-21 18:50 55.59444 12.60649 784 ft 161 kts 225°
2026-04-21 18:50 55.58630 12.59299 1506 ft 163 kts 225°
2026-04-21 18:50 55.57736 12.57964 2080 ft 180 kts 221°
2026-04-21 18:50 55.56683 12.56514 2520 ft 204 kts 218°
2026-04-21 18:51 55.55411 12.55010 2870 ft 237 kts 214°
2026-04-21 18:51 55.53984 12.53288 3473 ft 257 kts 216°
2026-04-21 18:51 55.52497 12.51429 4300 ft 266 kts 216°
2026-04-21 18:51 55.50965 12.49522 5175 ft 274 kts 215°
2026-04-21 18:52 55.49390 12.47577 6092 ft 278 kts 214°
2026-04-21 18:52 55.47796 12.45617 7053 ft 281 kts 214°
2026-04-21 18:52 55.46179 12.43636 7956 ft 286 kts 213°
2026-04-21 18:52 55.44530 12.41620 8840 ft 291 kts 213°
2026-04-21 18:53 55.42847 12.39568 9755 ft 297 kts 213°
2026-04-21 18:53 55.41134 12.37479 10612 ft 304 kts 213°
2026-04-21 18:53 55.39336 12.35293 11055 ft 326 kts 213°
2026-04-21 18:53 55.37416 12.32963 11616 ft 342 kts 213°
2026-04-21 18:54 55.35436 12.30557 12426 ft 350 kts 213°
2026-04-21 18:54 55.33418 12.28108 13312 ft 355 kts 213°
2026-04-21 18:54 55.31369 12.25625 14205 ft 361 kts 212°
2026-04-21 18:54 55.29290 12.23109 14997 ft 366 kts 212°
2026-04-21 18:55 55.27894 12.21421 15507 ft 369 kts 212°
2026-04-21 18:55 55.25048 12.17985 16582 ft 374 kts 212°
2026-04-21 18:55 55.22890 12.15385 17330 ft 379 kts 212°
2026-04-21 18:55 55.20703 12.12744 18074 ft 385 kts 213°
2026-04-21 18:56 55.18514 12.09989 18802 ft 390 kts 214°
2026-04-21 18:56 55.16313 12.07172 19435 ft 395 kts 214°
2026-04-21 18:56 55.14080 12.04309 20057 ft 401 kts 213°
2026-04-21 18:56 55.11813 12.01408 20671 ft 406 kts 213°
2026-04-21 18:57 55.09519 11.98479 21304 ft 411 kts 213°
2026-04-21 18:57 55.07192 11.95513 21907 ft 416 kts 213°
2026-04-21 18:57 55.04840 11.92520 22489 ft 421 kts 213°
2026-04-21 18:57 55.02460 11.89497 23067 ft 426 kts 213°
2026-04-21 18:58 55.00051 11.86441 23637 ft 430 kts 212°
2026-04-21 18:58 54.97616 11.83357 24159 ft 435 kts 212°
2026-04-21 18:58 54.95163 11.80255 24632 ft 438 kts 212°
2026-04-21 18:58 54.92683 11.77123 25136 ft 441 kts 212°
2026-04-21 18:59 54.90190 11.73981 25612 ft 444 kts 212°
2026-04-21 18:59 54.87679 11.70821 26065 ft 447 kts 212°
2026-04-21 18:59 54.85151 11.67643 26521 ft 450 kts 212°
2026-04-21 18:59 54.82608 11.64453 26968 ft 453 kts 212°
2026-04-21 19:00 54.80044 11.61241 27399 ft 456 kts 212°
2026-04-21 19:00 54.77465 11.58014 27812 ft 459 kts 212°
2026-04-21 19:00 54.74866 11.54768 28241 ft 462 kts 212°
2026-04-21 19:00 54.72254 11.51512 28643 ft 464 kts 212°
2026-04-21 19:01 54.69624 11.48239 29064 ft 467 kts 212°
2026-04-21 19:01 54.66977 11.44950 29457 ft 470 kts 212°
2026-04-21 19:01 54.64350 11.41692 29823 ft 472 kts 212°
2026-04-21 19:01 54.61672 11.38376 30204 ft 475 kts 212°
2026-04-21 19:02 54.58941 11.34999 30550 ft 477 kts 212°
2026-04-21 19:02 54.56283 11.31718 30982 ft 476 kts 212°
2026-04-21 19:02 54.53551 11.28364 31342 ft 477 kts 212°
2026-04-21 19:02 54.50881 11.25106 31736 ft 476 kts 212°
2026-04-21 19:03 54.48142 11.21776 32239 ft 474 kts 212°
2026-04-21 19:03 54.45492 11.18561 32660 ft 473 kts 212°
2026-04-21 19:03 54.42810 11.15312 33085 ft 471 kts 212°
2026-04-21 19:03 54.40136 11.12077 33520 ft 469 kts 213°
2026-04-21 19:04 54.37473 11.08860 33944 ft 467 kts 213°
2026-04-21 19:04 54.34819 11.05659 34346 ft 466 kts 213°
2026-04-21 19:04 54.32172 11.02471 34676 ft 464 kts 213°
2026-04-21 19:04 54.29540 10.99267 34964 ft 464 kts 214°
2026-04-21 19:05 54.26936 10.95997 35237 ft 464 kts 215°
2026-04-21 19:05 54.24351 10.92697 35530 ft 464 kts 215°
2026-04-21 19:05 54.21771 10.89385 35776 ft 464 kts 216°
2026-04-21 19:05 54.19191 10.86076 36025 ft 464 kts 216°
2026-04-21 19:06 54.16607 10.82774 36276 ft 464 kts 216°
2026-04-21 19:06 54.14026 10.79488 36512 ft 463 kts 216°
2026-04-21 19:06 54.11438 10.76205 36752 ft 463 kts 216°
2026-04-21 19:06 54.08850 10.72932 36985 ft 463 kts 216°
2026-04-21 19:07 54.06227 10.69623 37209 ft 463 kts 216°
2026-04-21 19:07 54.03670 10.66402 37431 ft 463 kts 216°
2026-04-21 19:07 54.01082 10.63148 37659 ft 463 kts 216°
2026-04-21 19:07 53.98494 10.59898 37880 ft 463 kts 216°
2026-04-21 19:08 53.95906 10.56654 38098 ft 463 kts 216°
2026-04-21 19:08 53.93316 10.53412 38287 ft 462 kts 216°
2026-04-21 19:08 53.90722 10.50170 38372 ft 464 kts 216°
2026-04-21 19:09 53.85531 10.43697 38371 ft 463 kts 216°
2026-04-21 19:09 53.80346 10.37252 38371 ft 462 kts 216°
2026-04-21 19:10 53.75164 10.30832 38353 ft 461 kts 216°
2026-04-21 19:10 53.69987 10.24437 38349 ft 461 kts 216°
2026-04-21 19:11 53.64810 10.18061 38348 ft 461 kts 216°
2026-04-21 19:11 53.60503 10.12773 38346 ft 461 kts 216°
2026-04-21 19:12 53.55317 10.06423 38348 ft 461 kts 216°
2026-04-21 19:12 53.50133 10.00095 38372 ft 460 kts 216°
2026-04-21 19:13 53.44946 9.93783 38374 ft 460 kts 216°
2026-04-21 19:13 53.39756 9.87487 38344 ft 460 kts 216°
2026-04-21 19:14 53.34565 9.81209 38344 ft 460 kts 216°
2026-04-21 19:14 53.29369 9.74944 38344 ft 461 kts 216°
2026-04-21 19:15 53.24162 9.68685 38346 ft 461 kts 215°
2026-04-21 19:15 53.18958 9.62450 38344 ft 461 kts 215°
2026-04-21 19:16 53.13748 9.56225 38338 ft 461 kts 215°
2026-04-21 19:16 53.08536 9.50017 38339 ft 461 kts 215°
2026-04-21 19:17 53.00715 9.40737 38333 ft 461 kts 215°
2026-04-21 19:17 52.95495 9.34568 38335 ft 461 kts 215°
2026-04-21 19:18 52.90273 9.28413 38335 ft 461 kts 215°
2026-04-21 19:18 52.85047 9.22273 38327 ft 461 kts 215°
2026-04-21 19:19 52.79815 9.16145 38324 ft 461 kts 215°
2026-04-21 19:19 52.74580 9.10031 38323 ft 461 kts 215°
2026-04-21 19:20 52.69343 9.03933 38318 ft 461 kts 215°
2026-04-21 19:20 52.64106 8.97853 38320 ft 460 kts 215°
2026-04-21 19:21 52.58869 8.91792 38316 ft 460 kts 215°
2026-04-21 19:21 52.53661 8.85782 38312 ft 460 kts 215°
2026-04-21 19:22 52.48382 8.79708 38307 ft 460 kts 215°
2026-04-21 19:22 52.43134 8.73688 38310 ft 460 kts 215°
2026-04-21 19:23 52.37890 8.67690 38306 ft 460 kts 215°
2026-04-21 19:23 52.32644 8.61708 38306 ft 459 kts 214°
2026-04-21 19:24 52.27399 8.55745 38308 ft 459 kts 214°
2026-04-21 19:24 52.22183 8.49831 38309 ft 459 kts 214°
2026-04-21 19:25 52.16937 8.43901 38303 ft 458 kts 215°
2026-04-21 19:25 52.11694 8.37992 38304 ft 458 kts 214°
2026-04-21 19:26 52.06452 8.32101 38303 ft 458 kts 215°
2026-04-21 19:26 52.01215 8.26233 38303 ft 458 kts 215°
2026-04-21 19:27 51.95965 8.20368 38303 ft 458 kts 215°
2026-04-21 19:27 51.90703 8.14505 38303 ft 459 kts 215°
2026-04-21 19:28 51.85435 8.08653 38298 ft 459 kts 215°
2026-04-21 19:28 51.80162 8.02812 38292 ft 459 kts 215°
2026-04-21 19:29 51.74892 7.96992 38291 ft 459 kts 215°
2026-04-21 19:29 51.69610 7.91175 38282 ft 460 kts 215°
2026-04-21 19:30 51.64321 7.85368 38276 ft 460 kts 215°
2026-04-21 19:30 51.59028 7.79572 38269 ft 460 kts 215°
2026-04-21 19:31 51.53731 7.73789 38292 ft 460 kts 215°
2026-04-21 19:31 51.48438 7.68028 38290 ft 460 kts 215°
2026-04-21 19:32 51.43178 7.62317 38293 ft 459 kts 215°
2026-04-21 19:32 51.37886 7.56589 38291 ft 459 kts 215°
2026-04-21 19:33 51.32589 7.50870 38283 ft 459 kts 215°
2026-04-21 19:33 51.27287 7.45163 38276 ft 460 kts 215°
2026-04-21 19:34 51.21976 7.39463 38276 ft 460 kts 215°
2026-04-21 19:34 51.16666 7.33780 38269 ft 460 kts 215°
2026-04-21 19:35 51.08693 7.25277 38265 ft 459 kts 215°
2026-04-21 19:36 51.03387 7.19638 38265 ft 458 kts 215°
2026-04-21 19:36 50.98086 7.14020 38266 ft 458 kts 215°
2026-04-21 19:37 50.92783 7.08415 38265 ft 458 kts 215°
2026-04-21 19:37 50.87483 7.02829 38268 ft 457 kts 216°
2026-04-21 19:38 50.82188 6.97264 38263 ft 456 kts 216°
2026-04-21 19:38 50.77759 6.92620 38261 ft 456 kts 216°
2026-04-21 19:39 50.71608 6.86189 38259 ft 456 kts 215°
2026-04-21 19:39 50.66310 6.80667 38254 ft 456 kts 216°
2026-04-21 19:40 50.61017 6.75166 38238 ft 456 kts 216°
2026-04-21 19:40 50.55723 6.69677 38233 ft 455 kts 216°
2026-04-21 19:41 50.50431 6.64205 38231 ft 455 kts 216°
2026-04-21 19:41 50.45135 6.58744 38228 ft 455 kts 216°
2026-04-21 19:42 50.39838 6.53298 38226 ft 455 kts 216°
2026-04-21 19:42 50.34537 6.47861 38228 ft 455 kts 216°
2026-04-21 19:43 50.29236 6.42440 38224 ft 455 kts 216°
2026-04-21 19:43 50.23927 6.37026 38213 ft 456 kts 216°
2026-04-21 19:44 50.18654 6.31664 38222 ft 456 kts 216°
2026-04-21 19:44 50.13337 6.26270 38222 ft 456 kts 216°
2026-04-21 19:45 50.08023 6.20893 38228 ft 456 kts 216°
2026-04-21 19:45 50.02701 6.15523 38218 ft 456 kts 216°
2026-04-21 19:46 49.97386 6.10176 38218 ft 454 kts 216°
2026-04-21 19:46 49.92076 6.04847 38217 ft 454 kts 216°
2026-04-21 19:47 49.86770 5.99536 38213 ft 454 kts 216°
2026-04-21 19:47 49.81458 5.94232 38204 ft 454 kts 216°
2026-04-21 19:48 49.76431 5.88458 38208 ft 446 kts 229°
2026-04-21 19:48 49.72869 5.80827 38210 ft 433 kts 249°
2026-04-21 19:49 49.70628 5.72252 38207 ft 430 kts 254°
2026-04-21 19:49 49.69129 5.63379 38208 ft 426 kts 263°
2026-04-21 19:50 49.68223 5.55911 38212 ft 426 kts 263°
2026-04-21 19:50 49.67011 5.45395 38208 ft 426 kts 263°
2026-04-21 19:51 49.65991 5.36397 38204 ft 425 kts 264°
2026-04-21 19:51 49.65483 5.31906 38065 ft 424 kts 264°
2026-04-21 19:51 49.64972 5.27410 37339 ft 427 kts 264°
2026-04-21 19:51 49.64457 5.22891 36695 ft 429 kts 264°
2026-04-21 19:52 49.63937 5.18353 36046 ft 430 kts 264°
2026-04-21 19:52 49.63415 5.13810 35409 ft 431 kts 264°
2026-04-21 19:52 49.62888 5.09249 34759 ft 432 kts 265°
2026-04-21 19:52 49.62360 5.04690 34111 ft 433 kts 265°
2026-04-21 19:53 49.61830 5.00149 33584 ft 424 kts 265°
2026-04-21 19:53 49.61311 4.95740 33143 ft 411 kts 265°
2026-04-21 19:53 49.60806 4.91465 32654 ft 399 kts 266°
2026-04-21 19:53 49.60317 4.87327 32213 ft 387 kts 266°
2026-04-21 19:54 49.59841 4.83301 31774 ft 376 kts 267°
2026-04-21 19:54 49.59378 4.79391 31357 ft 366 kts 267°
2026-04-21 19:54 49.58927 4.75587 30944 ft 357 kts 268°
2026-04-21 19:54 49.58486 4.71871 30527 ft 348 kts 268°
2026-04-21 19:55 49.58053 4.68241 30099 ft 341 kts 268°
2026-04-21 19:55 49.57635 4.64734 29662 ft 335 kts 268°
2026-04-21 19:55 49.57209 4.61146 29263 ft 337 kts 268°
2026-04-21 19:55 49.56792 4.57642 28861 ft 337 kts 267°
2026-04-21 19:56 49.56361 4.54056 28448 ft 336 kts 267°
2026-04-21 19:56 49.55941 4.50574 28054 ft 335 kts 267°
2026-04-21 19:56 49.55515 4.47057 27624 ft 334 kts 267°
2026-04-21 19:56 49.55089 4.43559 27247 ft 331 kts 267°
2026-04-21 19:57 49.54666 4.40084 26852 ft 330 kts 267°
2026-04-21 19:57 49.54243 4.36620 26435 ft 329 kts 267°
2026-04-21 19:57 49.53820 4.33164 26026 ft 328 kts 266°
2026-04-21 19:57 49.53398 4.29716 25621 ft 328 kts 266°
2026-04-21 19:58 49.52974 4.26272 25207 ft 328 kts 266°
2026-04-21 19:58 49.52687 4.23946 24932 ft 328 kts 266°
2026-04-21 19:58 49.52262 4.20504 24526 ft 328 kts 265°
2026-04-21 19:58 49.51835 4.17056 24123 ft 328 kts 265°
2026-04-21 19:59 49.51407 4.13607 23685 ft 329 kts 265°
2026-04-21 19:59 49.50976 4.10148 23214 ft 329 kts 264°
2026-04-21 19:59 49.50544 4.06698 22793 ft 328 kts 264°
2026-04-21 19:59 49.50113 4.03266 22377 ft 327 kts 264°
2026-04-21 20:00 49.49683 3.99843 21956 ft 326 kts 264°
2026-04-21 20:00 49.49253 3.96425 21547 ft 325 kts 264°
2026-04-21 20:00 49.48822 3.93013 21130 ft 325 kts 264°
2026-04-21 20:00 49.48391 3.89606 20714 ft 324 kts 263°
2026-04-21 20:01 49.47960 3.86204 20299 ft 324 kts 263°
2026-04-21 20:01 49.47534 3.82851 19879 ft 325 kts 263°
2026-04-21 20:01 49.47099 3.79438 19448 ft 325 kts 263°
2026-04-21 20:01 49.46663 3.76022 19023 ft 326 kts 263°
2026-04-21 20:02 49.46224 3.72596 18599 ft 327 kts 262°
2026-04-21 20:02 49.45783 3.69163 18138 ft 328 kts 262°
2026-04-21 20:02 49.45341 3.65729 17686 ft 328 kts 262°
2026-04-21 20:02 49.44852 3.62303 17255 ft 328 kts 259°
2026-04-21 20:03 49.44293 3.58913 16863 ft 327 kts 258°
2026-04-21 20:03 49.43718 3.55532 16417 ft 327 kts 258°
2026-04-21 20:03 49.43088 3.52178 16026 ft 329 kts 255°
2026-04-21 20:03 49.42308 3.48857 15645 ft 331 kts 252°
2026-04-21 20:04 49.41497 3.45556 15268 ft 330 kts 252°
2026-04-21 20:04 49.40685 3.42259 14885 ft 329 kts 252°
2026-04-21 20:04 49.39880 3.38977 14526 ft 328 kts 252°
2026-04-21 20:04 49.39079 3.35704 14202 ft 326 kts 252°
2026-04-21 20:05 49.38286 3.32443 13955 ft 326 kts 252°
2026-04-21 20:05 49.37496 3.29192 13681 ft 325 kts 252°
2026-04-21 20:05 49.36710 3.25942 13417 ft 324 kts 252°
2026-04-21 20:05 49.35931 3.22706 13149 ft 323 kts 252°
2026-04-21 20:06 49.35159 3.19475 12890 ft 322 kts 252°
2026-04-21 20:06 49.34394 3.16254 12621 ft 321 kts 252°
2026-04-21 20:06 49.33634 3.13038 12363 ft 320 kts 252°
2026-04-21 20:06 49.32878 3.09831 12099 ft 320 kts 252°
2026-04-21 20:07 49.32125 3.06636 11843 ft 319 kts 252°
2026-04-21 20:07 49.31373 3.03437 11590 ft 318 kts 252°
2026-04-21 20:07 49.30629 3.00257 11334 ft 317 kts 252°
2026-04-21 20:07 49.29888 2.97078 11193 ft 316 kts 252°
2026-04-21 20:08 49.29151 2.93913 11188 ft 316 kts 252°
2026-04-21 20:08 49.28414 2.90743 11188 ft 316 kts 252°
2026-04-21 20:08 49.27677 2.87575 11187 ft 316 kts 252°
2026-04-21 20:08 49.26947 2.84443 11190 ft 316 kts 252°
2026-04-21 20:09 49.26198 2.81254 11184 ft 314 kts 252°
2026-04-21 20:09 49.25468 2.78173 11178 ft 301 kts 252°
2026-04-21 20:09 49.24756 2.75183 11188 ft 299 kts 252°
2026-04-21 20:09 49.24040 2.72177 11187 ft 301 kts 252°
2026-04-21 20:10 49.23322 2.69159 11187 ft 303 kts 252°
2026-04-21 20:10 49.22603 2.66139 11184 ft 302 kts 252°
2026-04-21 20:10 49.21883 2.63127 11181 ft 302 kts 252°
2026-04-21 20:10 49.21163 2.60118 11184 ft 302 kts 252°
2026-04-21 20:11 49.20442 2.57107 11182 ft 302 kts 252°
2026-04-21 20:11 49.19720 2.54093 11175 ft 302 kts 252°
2026-04-21 20:11 49.18999 2.51079 10978 ft 302 kts 252°
2026-04-21 20:11 49.18281 2.48074 10729 ft 301 kts 252°
2026-04-21 20:12 49.17565 2.45071 10379 ft 300 kts 252°
2026-04-21 20:12 49.16855 2.42079 10000 ft 299 kts 252°
2026-04-21 20:12 49.16152 2.39093 9538 ft 298 kts 251°
2026-04-21 20:12 49.15461 2.36102 9049 ft 298 kts 251°
2026-04-21 20:13 49.14785 2.33110 8583 ft 298 kts 251°
2026-04-21 20:13 49.14122 2.30108 8126 ft 299 kts 251°
2026-04-21 20:13 49.13472 2.27097 7660 ft 299 kts 251°
2026-04-21 20:13 49.12837 2.24076 7211 ft 299 kts 251°
2026-04-21 20:14 49.12215 2.21048 6760 ft 298 kts 251°
2026-04-21 20:14 49.11623 2.18050 6336 ft 291 kts 251°
2026-04-21 20:14 49.11047 2.15147 6029 ft 280 kts 248°
2026-04-21 20:14 49.10042 2.12730 5757 ft 266 kts 217°
2026-04-21 20:15 49.08490 2.11396 5517 ft 251 kts 187°
2026-04-21 20:15 49.06807 2.11109 5339 ft 239 kts 174°
2026-04-21 20:15 49.05158 2.11114 5170 ft 236 kts 172°
2026-04-21 20:15 49.03523 2.11161 4977 ft 234 kts 172°
2026-04-21 20:16 49.01897 2.11209 4780 ft 233 kts 172°
2026-04-21 20:16 49.00287 2.11295 4691 ft 229 kts 164°
2026-04-21 20:16 48.98904 2.12222 4606 ft 212 kts 131°
2026-04-21 20:16 48.98180 2.14058 4528 ft 202 kts 99°
2026-04-21 20:17 48.98329 2.16137 4449 ft 202 kts 66°
2026-04-21 20:17 48.99238 2.17809 4378 ft 210 kts 46°
2026-04-21 20:17 49.00380 2.19219 4300 ft 211 kts 49°
2026-04-21 20:17 49.00968 2.21132 4215 ft 200 kts 85°
2026-04-21 20:18 49.00999 2.22526 4164 ft 198 kts 89°
2026-04-21 20:18 49.01032 2.25175 4038 ft 180 kts 87°
2026-04-21 20:18 49.01125 2.27026 3792 ft 172 kts 85°
2026-04-21 20:18 49.01225 2.28807 3540 ft 167 kts 85°
2026-04-21 20:19 49.01317 2.30577 3296 ft 168 kts 85°
2026-04-21 20:19 49.01409 2.32342 3055 ft 166 kts 85°
2026-04-21 20:19 49.01502 2.34083 2842 ft 165 kts 85°
2026-04-21 20:19 49.01591 2.35782 2600 ft 158 kts 85°
2026-04-21 20:20 49.01678 2.37411 2388 ft 149 kts 84°
2026-04-21 20:20 49.01757 2.38915 2194 ft 135 kts 85°
2026-04-21 20:20 49.01830 2.40274 2052 ft 123 kts 85°
2026-04-21 20:20 49.01897 2.41552 1877 ft 121 kts 84°
2026-04-21 20:21 49.01965 2.42843 1694 ft 123 kts 85°
2026-04-21 20:21 49.02033 2.44142 1513 ft 123 kts 84°
2026-04-21 20:21 49.02102 2.45443 1357 ft 123 kts 84°
2026-04-21 20:21 49.02171 2.46739 1181 ft 122 kts 85°
2026-04-21 20:22 49.02239 2.48030 1007 ft 123 kts 83°
2026-04-21 20:22 49.02376 2.50619 670 ft 122 kts 83°
2026-04-21 20:22 49.02445 2.51903 493 ft 121 kts 82°
2026-04-21 20:23 49.02513 2.53158 365 ft 113 kts 83°
2026-04-21 20:23 49.02565 2.54167 357 ft 71 kts 85°
2026-04-21 20:23 49.02530 2.54647 360 ft 28 kts 103°
2026-04-21 20:23 49.02490 2.54870 365 ft 20 kts 105°
2026-04-21 20:24 49.02462 2.55029 362 ft 0 kts 105°
2026-04-21 20:24 49.02460 2.55034 361 ft 2 kts 118°
2026-04-21 20:24 49.02426 2.55041 357 ft 9 kts 178°
2026-04-21 20:24 49.02339 2.55045 359 ft 16 kts 179°
2026-04-21 20:25 49.02206 2.55051 364 ft 21 kts 175°
2026-04-21 20:25 49.02069 2.55075 360 ft 18 kts 170°
2026-04-21 20:25 49.02045 2.55083 366 ft 2 kts 156°
2026-04-21 20:25 49.02045 2.55147 363 ft 12 kts 86°
2026-04-21 20:26 49.02053 2.55315 357 ft 17 kts 86°
2026-04-21 20:26 49.02062 2.55495 365 ft 18 kts 84°
2026-04-21 20:26 49.02073 2.55684 360 ft 18 kts 85°
2026-04-21 20:26 49.02083 2.55881 360 ft 19 kts 86°
2026-04-21 20:27 49.02096 2.56085 357 ft 20 kts 87°
2026-04-21 20:27 49.02078 2.56282 365 ft 18 kts 129°
2026-04-21 20:27 49.02020 2.56444 357 ft 17 kts 89°
2026-04-21 20:27 49.02033 2.56623 365 ft 17 kts 86°
2026-04-21 20:28 49.02043 2.56808 357 ft 18 kts 87°
2026-04-21 20:28 49.02049 2.56998 357 ft 18 kts 89°
2026-04-21 20:28 49.02063 2.57171 364 ft 16 kts 87°
2026-04-21 20:28 49.02071 2.57346 357 ft 16 kts 84°
2026-04-21 20:29 49.02079 2.57521 363 ft 17 kts 87°
2026-04-21 20:29 49.02089 2.57698 360 ft 17 kts 86°
2026-04-21 20:29 49.02070 2.57871 365 ft 17 kts 116°
2026-04-21 20:29 49.02002 2.58015 362 ft 17 kts 137°
2026-04-21 20:30 49.01898 2.58100 364 ft 18 kts 162°
2026-04-21 20:30 49.01774 2.58129 357 ft 19 kts 175°
2026-04-21 20:30 49.01642 2.58146 357 ft 20 kts 176°
2026-04-21 20:30 49.01501 2.58160 357 ft 21 kts 174°
2026-04-21 20:31 49.01354 2.58181 359 ft 22 kts 174°
2026-04-21 20:31 49.01201 2.58203 357 ft 22 kts 174°
2026-04-21 20:31 49.01053 2.58220 357 ft 20 kts 174°
2026-04-21 20:31 49.00937 2.58211 362 ft 14 kts 221°
2026-04-21 20:32 49.00908 2.58104 361 ft 9 kts 265°
2026-04-21 20:32 49.00903 2.58006 357 ft 10 kts 267°
2026-04-21 20:32 49.00897 2.57899 357 ft 11 kts 265°
2026-04-21 20:32 49.00890 2.57771 360 ft 13 kts 265°
2026-04-21 20:33 49.00882 2.57621 360 ft 15 kts 266°
2026-04-21 20:33 49.00873 2.57449 362 ft 17 kts 264°
2026-04-21 20:33 49.00862 2.57259 359 ft 19 kts 261°
2026-04-21 20:33 49.00852 2.57065 364 ft 17 kts 265°
2026-04-21 20:34 49.00821 2.56929 364 ft 11 kts 209°
2026-04-21 20:34 49.00761 2.56926 363 ft 7 kts 175°
2026-04-21 20:34 49.00717 2.56931 359 ft 6 kts 176°
2026-04-21 20:34 49.00675 2.56935 360 ft 6 kts 176°
2026-04-21 20:35 49.00640 2.56921 360 ft 5 kts 222°
2026-04-21 20:35 49.00631 2.56872 357 ft 5 kts 264°
2026-04-21 20:35 49.00628 2.56813 357 ft 6 kts 266°
2026-04-21 20:35 49.00622 2.56743 362 ft 5 kts 250°
2026-04-21 20:36 49.00607 2.56731 359 ft 1 kts 181°
2026-04-21 20:36 49.00593 2.56732 360 ft 4 kts 177°
2026-04-21 20:36 49.00574 2.56734 360 ft 1 kts 175°
2026-04-21 20:36 49.00572 2.56735 360 ft 0 kts 175°